Date,TemperatureHighF,TemperatureAvgF,TemperatureLowF,DewpointHighF,DewpointAvgF,DewpointLowF,HumidityHigh,HumidityAvg,HumidityLow,PressureMaxIn,PressureMinIn,WindSpeedMaxMPH,WindSpeedAvgMPH,GustSpeedMaxMPH,PrecipitationSumIn
2013-1-1,47.5,42.0,37.4,36.9,32.1,26.6,72,68,59,0.00,0.00,0,0,0,0.00
2013-1-2,43.3,39.2,34.7,33.1,30.2,23.2,75,70,63,0.00,0.00,0,0,0,0.00
2013-1-3,43.0,34.6,27.3,26.6,22.1,19.2,73,60,52,0.00,0.00,0,0,0,0.00
2013-1-4,50.2,35.5,24.4,29.8,22.4,17.6,77,60,44,0.00,0.00,0,0,0,0.00
2013-1-5,52.0,38.0,25.7,30.4,23.4,16.7,74,57,38,0.00,0.00,0,0,0,0.00
2013-1-6,56.3,43.4,33.6,36.5,31.2,26.8,79,63,44,0.00,0.00,0,0,0,0.00
2013-1-7,52.3,41.0,30.4,33.6,28.4,21.4,73,61,47,0.00,0.00,0,0,0,0.00
2013-1-8,52.3,36.2,24.4,37.1,26.8,17.9,81,69,55,0.00,0.00,0,0,0,0.00
2013-1-9,59.0,44.8,28.6,48.3,36.6,22.9,83,73,66,0.00,0.00,0,0,0,0.00
2013-1-10,61.2,46.6,34.3,41.5,33.4,26.2,77,61,40,0.00,0.00,0,0,0,0.00
2013-1-11,44.1,41.2,36.0,39.8,34.5,27.1,85,77,65,0.00,0.00,0,0,0,0.00
2013-1-12,49.8,45.3,42.1,45.7,41.4,38.2,88,86,85,0.00,0.00,0,0,0,0.00
2013-1-13,46.2,46.2,46.2,42.6,42.6,42.6,87,87,87,0.00,40.00,0,0,0,0.00
2013-1-14,61.7,53.0,42.1,58.5,49.6,38.3,89,88,86,0.00,0.00,0,0,0,0.00
2013-1-15,41.9,39.3,38.1,38.3,36.1,35.1,89,89,87,0.00,0.00,0,0,0,0.00
2013-1-16,43.7,39.8,36.3,40.7,36.8,33.3,89,89,89,0.00,0.00,0,0,0,0.00
2013-1-17,45.1,39.8,33.1,42.4,36.9,30.2,90,89,89,0.00,0.00,0,0,0,0.00
2013-1-18,42.1,34.4,29.8,34.2,30.0,25.8,89,84,71,0.00,0.00,0,0,0,0.00
2013-1-19,51.1,37.1,27.1,38.6,29.9,23.2,86,76,58,0.00,0.00,0,0,0,0.00
2013-1-20,60.4,43.8,32.5,41.6,30.7,23.5,80,62,40,0.00,0.00,0,0,0,0.00
2013-1-21,55.9,40.3,28.9,31.9,22.8,11.4,71,51,35,0.00,0.00,0,0,0,0.00
2013-1-22,34.3,27.7,20.8,12.5,5.7,1.9,48,39,31,0.00,0.00,0,0,0,0.00
2013-1-23,35.2,24.7,13.6,12.2,7.3,2.5,68,48,32,0.00,0.00,0,0,0,0.00
2013-1-24,31.6,24.3,17.4,16.7,11.2,5.4,73,58,39,0.00,0.00,0,0,0,0.00
2013-1-25,24.6,20.2,14.2,17.1,10.8,4.0,75,67,55,0.00,0.00,0,0,0,0.00
2013-1-26,38.1,29.0,20.1,26.4,20.5,13.7,78,71,60,0.00,0.00,0,0,0,0.00
2013-1-27,41.9,32.3,25.5,26.8,22.2,18.9,79,67,54,0.00,0.00,0,0,0,0.00
2013-1-28,48.9,39.2,31.6,41.3,33.1,22.6,86,79,69,0.00,0.00,0,0,0,0.00
2013-1-29,73.9,53.8,38.8,59.2,45.8,34.7,88,75,57,0.00,0.00,0,0,0,0.00
2013-1-30,69.6,61.9,51.1,62.2,56.6,44.8,89,83,76,0.00,0.00,0,0,0,0.00
2013-1-31,62.8,43.7,31.6,59.6,31.5,19.1,89,63,48,0.00,0.00,0,0,0,0.00
2013-2-1,37.2,30.8,22.5,24.5,14.7,7.6,72,52,37,0.00,0.00,0,0,0,0.00
2013-2-2,34.9,27.2,19.8,22.7,15.2,7.0,76,61,46,0.00,0.00,0,0,0,0.00
2013-2-3,40.8,32.6,26.8,31.8,24.1,18.7,82,71,56,0.00,0.00,0,0,0,0.00
2013-2-4,38.1,31.2,23.5,22.6,19.5,15.5,73,62,52,0.00,0.00,0,0,0,0.00
2013-2-5,58.8,41.3,30.9,39.6,28.7,21.4,74,62,47,0.00,0.00,0,0,0,0.00
2013-2-6,60.1,41.6,28.6,37.3,28.3,22.2,80,61,38,0.00,0.00,0,0,0,0.00
2013-2-7,41.5,36.8,31.8,28.5,25.6,22.0,72,64,55,0.00,0.00,0,0,0,0.00
2013-2-8,52.9,40.4,33.8,43.1,32.4,24.9,86,74,59,0.00,0.00,0,0,0,0.00
2013-2-9,55.0,38.6,28.8,25.6,20.8,15.8,66,50,30,0.00,0.00,0,0,0,0.00
2013-2-10,48.0,34.2,20.8,27.3,20.0,12.1,71,57,40,0.00,0.00,0,0,0,0.00
2013-2-11,54.3,45.5,37.2,49.5,39.9,27.7,86,81,65,0.00,0.00,0,0,0,0.00
2013-2-12,62.1,51.0,43.9,38.2,30.9,27.7,66,47,33,0.00,0.00,0,0,0,0.00
2013-2-13,44.8,40.5,35.4,34.3,30.9,27.8,81,69,55,0.00,0.00,0,0,0,0.00
2013-2-14,58.8,39.8,28.2,35.9,28.6,23.1,86,66,38,0.00,0.00,0,0,0,0.00
2013-2-15,66.9,44.2,27.3,41.1,31.0,20.7,80,62,34,0.00,0.00,0,0,0,0.00
2013-2-16,42.4,36.7,30.0,34.8,29.9,19.1,83,76,64,0.00,0.00,0,0,0,0.00
2013-2-17,38.5,28.5,23.0,19.1,12.9,7.6,69,53,36,0.00,0.00,0,0,0,0.00
2013-2-18,51.8,32.9,18.0,25.2,16.2,7.6,67,52,35,0.00,0.00,0,0,0,0.00
2013-2-19,48.7,37.3,31.3,42.5,29.7,20.5,84,74,60,0.00,0.00,0,0,0,0.00
2013-2-20,52.3,38.3,29.8,26.3,21.1,14.9,64,51,33,0.00,0.00,0,0,0,0.00
2013-2-21,52.5,37.0,26.4,25.5,19.7,15.4,65,50,35,0.00,0.00,0,0,0,0.00
2013-2-22,39.0,35.0,32.5,27.5,22.7,17.8,71,61,52,0.00,0.00,0,0,0,0.00
2013-2-23,52.0,40.1,34.9,43.3,33.8,27.3,84,78,71,0.00,0.00,0,0,0,0.00
2013-2-24,64.6,46.4,34.7,43.3,33.5,21.8,86,64,32,0.00,0.00,0,0,0,0.00
2013-2-25,48.2,35.8,26.6,26.0,21.4,17.4,70,56,40,0.00,0.00,0,0,0,0.00
2013-2-26,42.4,34.9,27.7,39.1,28.5,17.8,88,77,63,0.00,0.00,0,0,0,0.00
2013-2-27,59.4,46.5,39.9,47.4,38.4,32.5,88,75,51,0.00,0.00,0,0,0,0.00
2013-2-28,48.7,41.1,36.5,33.3,30.0,25.6,78,65,50,0.00,0.00,0,0,0,0.00
2013-3-1,43.5,37.8,31.3,31.6,27.2,23.6,77,66,56,0.00,0.00,0,0,0,0.00
2013-3-2,39.7,36.1,33.6,26.6,24.0,21.1,68,61,55,0.00,0.00,0,0,0,0.00
2013-3-3,50.7,36.6,26.2,27.1,20.9,14.4,72,54,38,0.00,0.00,0,0,0,0.00
2013-3-4,56.5,37.3,25.2,24.1,17.4,12.0,58,46,27,0.00,0.00,0,0,0,0.00
2013-3-5,48.9,38.6,29.5,32.6,25.2,15.8,80,59,48,0.00,0.00,0,0,0,0.00
2013-3-6,33.6,33.1,32.7,28.7,28.4,28.0,84,83,80,0.00,0.00,0,0,0,0.00
2013-3-7,45.9,39.7,32.7,33.8,28.3,24.8,73,64,57,0.00,0.00,0,0,0,0.00
2013-3-8,47.1,38.1,31.6,31.7,27.3,24.6,76,66,53,0.00,0.00,114,0,114,0.00
2013-3-9,61.2,40.7,30.0,35.1,27.7,23.0,76,62,31,0.00,0.00,0,0,0,0.00
2013-3-10,68.2,46.7,28.9,39.6,29.4,20.9,75,54,30,0.00,0.00,0,0,0,0.00
2013-3-11,61.0,50.3,34.9,48.8,41.0,25.3,77,71,64,0.00,0.00,0,0,0,0.00
2013-3-12,68.5,57.4,44.2,58.9,48.4,31.7,88,73,49,0.00,0.00,0,0,0,0.00
2013-3-13,44.2,38.0,33.4,31.7,26.7,18.0,74,64,47,0.00,0.00,0,0,0,0.00
2013-3-14,53.4,38.2,30.9,24.9,19.1,16.9,57,47,33,0.00,0.00,0,0,0,0.00
2013-3-15,88.0,49.1,28.6,70.9,30.0,17.9,69,49,37,0.00,0.00,0,0,0,0.00
2013-3-16,67.6,53.9,41.4,52.8,44.9,29.7,83,72,57,0.00,0.00,0,0,0,0.44
2013-3-17,45.5,38.7,34.0,39.1,33.8,29.6,85,83,78,0.00,0.00,0,0,0,0.02
2013-3-18,34.3,33.8,33.1,30.8,30.1,29.3,87,86,84,0.00,0.00,0,0,0,0.00
2013-3-19,62.8,45.0,33.1,46.9,33.4,18.7,89,69,28,0.00,0.00,0,0,0,0.00
2013-3-20,59.2,50.7,35.4,27.4,22.3,15.0,45,34,26,0.00,0.00,0,0,0,0.00
2013-3-21,43.3,35.1,29.3,25.5,19.0,9.9,70,53,37,0.00,0.00,0,0,0,0.00
2013-3-22,56.5,38.7,26.1,25.8,17.6,10.0,56,43,29,0.00,0.00,0,0,0,0.00
2013-3-23,59.9,41.5,26.4,29.6,23.2,16.5,68,50,30,0.00,0.00,0,0,0,0.00
2013-3-24,41.7,36.4,33.8,27.6,24.6,21.6,77,63,51,0.00,0.00,0,0,0,0.00
2013-3-25,39.0,35.3,32.4,33.5,29.9,27.4,82,80,77,0.00,0.00,0,0,0,0.00
2013-3-26,48.0,38.3,30.0,36.1,29.9,25.5,84,72,56,0.00,0.00,0,0,0,0.00
2013-3-27,52.9,42.3,32.7,33.8,27.9,23.3,73,58,42,0.00,0.00,0,0,0,0.00
2013-3-28,55.2,41.6,29.1,32.5,26.3,21.2,75,56,41,0.00,0.00,0,0,0,0.00
2013-3-29,59.4,45.3,32.7,36.6,29.3,23.0,72,55,37,0.00,0.00,0,0,0,0.00
2013-3-30,65.8,48.7,33.1,36.5,29.9,23.7,69,50,32,0.00,0.00,0,0,0,0.00
2013-3-31,54.0,46.2,41.7,48.3,37.5,29.9,83,72,57,0.00,0.00,0,0,0,0.00
2013-4-1,65.3,46.8,36.7,47.1,35.1,25.8,86,67,42,0.00,0.00,0,0,0,0.00
2013-4-2,58.8,42.1,30.4,27.5,21.9,18.6,69,47,26,0.00,0.00,0,0,0,0.00
2013-4-3,60.6,44.1,28.0,27.0,20.6,15.7,66,42,25,0.00,0.00,0,0,0,0.00
2013-4-4,51.6,39.1,29.1,30.7,20.7,14.6,77,49,31,0.00,0.00,0,0,0,0.00
2013-4-5,65.3,49.0,36.9,47.1,37.0,30.7,85,66,39,0.00,0.00,0,0,0,0.00
2013-4-6,62.4,49.4,36.7,33.9,29.0,23.9,68,48,29,0.00,0.00,0,0,0,0.00
2013-4-7,74.5,56.6,37.9,46.6,37.1,26.0,63,49,37,0.00,0.00,0,0,0,0.00
2013-4-8,84.2,66.1,46.6,53.0,46.0,36.8,74,50,33,0.00,0.00,0,0,0,0.47
2013-4-9,89.2,74.3,59.4,58.7,52.9,47.6,70,49,33,0.00,0.00,0,0,0,0.00
2013-4-10,94.8,77.6,61.3,61.8,55.5,49.9,72,49,31,0.00,0.00,0,0,0,0.46
2013-4-11,88.9,76.5,62.2,62.4,56.9,51.5,72,52,35,0.00,0.00,0,0,0,0.00
2013-4-12,78.1,69.6,62.8,66.9,57.7,43.6,87,68,42,0.00,0.00,0,0,0,0.46
2013-4-13,75.2,62.8,48.0,45.5,41.1,35.7,71,47,31,0.00,0.00,0,0,0,0.46
2013-4-14,77.7,63.6,46.9,46.1,40.5,33.3,65,44,32,0.00,0.00,0,0,0,0.00
2013-4-15,63.5,58.2,53.8,54.7,49.8,41.5,84,75,47,0.00,0.00,0,0,0,0.00
2013-4-16,73.0,62.7,55.9,60.8,55.6,51.1,85,78,64,0.00,0.00,0,0,0,0.00
2013-4-17,83.5,69.7,58.8,64.2,58.7,53.7,85,70,47,0.00,0.00,0,0,0,0.00
2013-4-18,79.0,68.8,62.1,64.7,58.3,55.6,84,70,52,0.00,0.00,0,0,0,0.00
2013-4-19,77.5,68.5,58.1,65.7,60.8,53.3,86,77,66,0.00,0.00,0,0,0,0.46
2013-4-20,62.4,53.9,45.1,52.9,39.4,35.3,84,59,38,0.00,0.00,0,0,0,0.00
2013-4-21,57.7,48.8,38.8,36.4,33.1,29.6,71,56,43,0.00,0.00,0,0,0,0.00
2013-4-22,59.7,48.3,34.0,39.4,34.5,26.6,78,60,45,0.00,0.00,0,0,0,0.00
2013-4-23,65.7,55.2,47.8,48.0,42.3,37.1,71,62,52,0.00,0.00,0,0,0,0.00
2013-4-24,77.7,62.1,43.5,57.4,49.2,37.4,83,65,45,0.00,0.00,0,0,0,0.00
2013-4-25,66.9,58.0,47.5,54.9,40.5,36.4,74,54,35,0.00,0.00,0,0,0,0.00
2013-4-26,67.8,52.7,39.4,56.4,38.4,31.4,75,60,36,0.00,0.00,0,0,0,0.46
2013-4-27,72.1,59.9,47.1,49.1,44.1,39.1,76,57,39,0.00,0.00,0,0,0,0.00
2013-4-28,59.2,56.3,51.6,50.9,46.5,41.5,77,70,60,0.00,0.00,0,0,0,0.46
2013-4-29,62.2,56.9,53.2,57.3,52.4,47.4,87,85,77,0.00,0.00,0,0,0,0.00
2013-4-30,62.4,58.3,55.0,56.6,53.7,51.2,87,85,79,0.00,0.00,0,0,0,0.46
2013-5-1,68.7,60.3,53.4,52.7,49.0,45.2,87,69,46,0.00,0.00,0,0,0,0.00
2013-5-2,66.7,59.8,50.9,51.0,47.2,42.1,75,64,50,0.00,0.00,0,0,0,0.00
2013-5-3,66.7,53.0,45.7,52.8,44.3,39.9,81,73,50,0.00,0.00,0,0,0,0.00
2013-5-4,63.3,56.9,45.0,50.5,46.0,37.7,78,67,59,0.00,0.00,0,0,0,0.00
2013-5-5,62.4,53.3,43.2,47.6,42.8,35.8,77,68,57,0.00,0.00,0,0,0,0.00
2013-5-6,60.1,56.0,51.6,56.6,50.7,45.8,88,82,67,0.00,0.00,0,0,0,0.00
2013-5-7,66.4,59.9,55.4,62.7,56.2,51.9,89,88,84,0.00,0.00,0,0,0,0.00
2013-5-8,61.3,57.3,52.3,57.8,53.9,48.8,89,88,87,0.00,0.00,0,0,0,0.46
2013-5-9,70.5,58.7,48.7,63.5,54.2,45.3,89,85,76,0.00,0.00,0,0,0,0.46
2013-5-10,78.6,64.8,53.8,67.2,58.3,50.0,89,80,57,0.00,0.00,0,0,0,0.00
2013-5-11,73.9,66.4,61.9,66.0,60.9,57.8,88,83,69,0.00,0.00,0,0,0,0.00
2013-5-12,64.9,62.2,56.7,58.4,51.7,37.7,85,70,39,0.00,0.00,0,0,0,0.00
2013-5-15,84.6,73.8,51.4,65.8,59.6,44.5,78,62,52,0.00,0.00,0,0,0,0.00
2013-5-16,84.7,71.2,63.1,64.7,60.3,54.0,85,70,49,0.00,0.00,0,0,0,0.00
2013-5-17,77.9,69.9,60.6,65.3,60.6,56.4,87,74,52,0.00,0.00,0,0,0,0.00
2013-5-18,68.2,63.2,61.0,60.7,58.7,56.8,89,85,71,0.00,0.00,0,0,0,0.00
2013-5-19,69.1,64.2,61.3,65.7,60.9,58.1,90,89,88,0.00,0.00,0,0,0,0.00
2013-5-20,75.6,68.9,64.2,70.8,65.3,61.0,90,88,82,0.00,0.00,0,0,0,0.00
2013-5-21,79.3,72.0,66.7,72.7,67.5,63.0,90,86,79,0.00,0.00,0,0,0,0.00
2013-5-22,71.8,69.4,68.5,68.4,65.9,65.1,89,88,87,0.00,0.00,0,0,0,0.00
2013-5-23,72.7,69.3,64.2,68.6,65.3,60.3,87,87,86,30.08,0.00,0,0,0,0.00
2013-5-24,64.2,57.3,49.3,60.5,45.4,38.9,89,65,54,0.00,0.00,0,0,0,0.02
2013-5-25,67.1,54.6,42.1,45.6,39.7,33.7,74,59,37,0.00,0.00,0,0,0,0.00
2013-5-26,70.7,58.7,44.1,48.3,43.4,37.3,80,59,37,0.00,0.00,0,0,0,0.00
2013-5-27,66.9,58.4,46.2,54.5,48.7,40.1,81,71,59,0.00,0.00,0,0,0,0.00
2013-5-28,82.2,67.7,54.1,68.5,60.1,49.1,86,77,59,0.00,0.00,0,0,0,0.04
2013-5-29,83.1,73.5,63.7,70.7,65.2,59.8,88,76,59,0.00,0.00,0,0,0,0.00
2013-5-30,85.8,76.0,65.3,70.8,65.4,59.7,84,71,54,0.00,0.00,0,0,0,0.00
2013-5-31,85.6,75.5,63.1,69.7,64.5,58.0,86,70,54,0.00,0.00,0,0,0,0.00
2013-6-1,87.4,77.2,66.0,71.4,66.1,60.2,84,69,57,0.00,0.00,0,0,0,0.00
2013-6-2,79.0,74.5,69.1,71.1,66.7,62.9,86,77,65,0.00,0.00,0,0,0,0.03
2013-6-3,77.5,71.3,67.6,70.6,66.4,63.5,89,85,75,0.00,0.00,0,0,0,0.40
2013-6-4,72.0,66.3,60.1,63.8,55.5,49.8,87,70,46,0.00,0.00,0,0,0,0.00
2013-6-5,77.2,68.5,58.8,63.8,59.0,52.0,82,72,60,0.00,0.00,0,0,0,0.00
2013-6-6,71.2,65.7,62.2,65.4,59.0,53.8,88,79,67,0.00,0.00,0,0,0,0.11
2013-6-7,68.9,66.5,64.6,65.8,63.2,61.2,90,89,88,0.00,0.00,0,0,0,0.19
2013-6-8,73.4,68.1,64.6,67.4,64.0,61.7,90,87,78,0.00,0.00,0,0,0,0.04
2013-6-9,77.7,69.3,61.9,72.9,65.6,58.5,89,88,83,0.00,0.00,0,0,0,0.35
2013-6-10,77.0,71.0,66.9,73.2,67.6,63.5,90,89,86,0.00,0.00,0,0,0,0.87
2013-6-11,77.5,71.1,66.6,71.1,66.2,63.2,90,85,71,0.00,0.00,0,0,0,0.00
2013-6-12,80.2,73.9,65.8,74.6,69.3,61.8,87,86,82,0.00,0.00,0,0,0,0.00
2013-6-13,78.4,73.6,70.5,73.6,69.6,66.4,88,87,81,0.00,0.00,0,0,0,0.19
2013-6-15,76.6,73.7,70.0,62.6,61.8,60.9,73,67,62,0.00,0.00,0,0,0,0.00
2013-6-16,83.3,81.2,79.3,70.9,70.0,69.2,75,69,64,0.00,0.00,0,0,0,0.00
2013-6-17,82.2,73.0,68.9,71.4,67.2,64.7,87,83,70,0.00,0.00,0,0,0,0.02
2013-6-18,72.1,68.9,66.2,68.7,65.4,62.8,89,89,87,0.00,0.00,0,0,0,0.71
2013-6-19,72.3,66.9,62.4,66.5,63.1,59.2,90,87,82,0.00,0.00,0,0,0,0.00
2013-6-20,75.0,68.8,65.5,65.7,63.3,61.8,88,83,70,0.00,0.00,0,0,0,0.00
2013-6-23,80.4,71.0,70.0,73.4,66.6,65.6,87,86,79,0.00,0.00,0,0,0,0.04
2013-7-2,73.9,72.4,71.4,70.9,69.3,68.4,90,90,90,0.00,0.00,0,0,0,0.22
2013-7-3,78.4,74.5,71.2,75.4,71.4,68.2,91,90,89,0.00,0.00,0,0,0,0.35
2013-7-4,80.8,77.2,73.0,76.2,73.5,70.0,91,88,83,0.00,0.00,0,0,0,0.00
2013-7-5,79.3,74.1,70.5,74.5,70.3,67.1,89,88,85,0.00,0.00,0,0,0,0.00
2013-7-6,83.1,78.9,75.7,76.9,73.0,70.8,89,82,72,0.00,0.00,0,0,0,0.00
2013-7-7,85.6,76.9,72.7,75.9,71.1,68.4,88,83,70,0.00,0.00,0,0,0,0.00
2013-7-8,75.9,72.3,70.5,71.8,68.4,66.8,88,88,87,0.00,0.00,0,0,0,0.00
2013-7-9,81.3,75.5,70.5,76.2,71.5,67.1,90,87,83,0.00,0.00,0,0,0,0.00
2013-7-10,84.0,76.0,72.7,78.3,71.8,69.3,89,87,81,0.00,0.00,0,0,0,0.00
2013-7-11,79.3,74.2,71.8,75.0,70.7,68.7,90,89,83,0.00,0.00,0,0,0,0.00
2013-7-12,73.6,69.5,66.0,70.2,66.1,62.6,90,89,88,0.00,40.00,0,0,0,0.00
2013-7-13,78.6,73.0,66.2,73.6,68.9,62.8,90,87,81,0.00,0.00,0,0,0,0.02
2013-7-14,82.0,76.7,71.8,75.2,72.0,68.4,90,85,76,0.00,0.00,0,0,0,0.00
2013-7-15,85.8,78.5,70.3,77.6,72.5,66.6,90,82,68,0.00,0.00,0,0,0,0.00
2013-7-16,88.5,81.3,72.3,78.8,74.4,68.6,88,80,67,0.00,0.00,0,0,0,0.00
2013-7-17,88.2,81.6,75.0,78.6,75.3,70.9,88,81,69,0.00,0.00,0,0,0,0.00
2013-7-18,90.0,82.4,74.8,79.4,75.7,70.6,88,80,68,0.00,0.00,0,0,0,0.00
2013-7-19,90.3,82.1,75.4,80.5,75.7,71.3,88,81,69,0.00,0.00,0,0,0,0.00
2013-7-20,88.5,79.8,74.1,78.2,73.3,69.3,86,81,69,0.00,0.00,0,0,0,0.00
2013-7-21,86.9,76.7,71.2,77.1,71.4,67.2,89,84,69,0.00,0.00,0,0,0,0.00
2013-7-22,80.6,74.7,72.1,74.3,70.7,68.6,89,87,81,0.00,0.00,0,0,0,0.00
2013-7-23,85.1,78.9,73.4,75.4,72.2,69.7,89,80,68,0.00,0.00,0,0,0,0.00
2013-7-24,82.2,75.0,70.0,73.9,69.3,65.6,88,83,71,0.00,0.00,0,0,0,0.06
2013-7-25,75.0,69.5,64.2,66.3,62.4,58.6,87,79,67,0.00,0.00,0,0,0,0.00
2013-7-26,78.3,70.8,60.6,67.0,62.9,56.4,87,77,64,0.00,0.00,0,0,0,0.00
2013-7-27,78.3,70.8,66.0,72.0,65.8,61.7,87,84,79,0.00,0.00,0,0,0,0.00
2013-7-28,74.5,73.5,71.4,69.7,68.6,67.0,88,85,79,0.00,0.00,0,0,0,0.00
2013-7-29,76.8,72.1,66.4,67.7,63.8,61.0,89,76,60,0.00,0.00,0,0,0,0.00
2013-7-30,78.3,70.6,61.5,66.5,62.6,57.0,87,76,62,0.00,0.00,0,0,0,0.97
2013-7-31,76.6,71.2,66.2,70.4,66.2,61.8,86,84,80,0.00,0.00,0,0,0,0.00
2013-8-1,78.1,71.3,68.7,72.9,67.4,65.0,89,88,81,0.00,0.00,0,0,0,0.34
2013-8-2,75.9,72.5,69.8,68.6,66.2,64.0,82,80,78,0.00,0.00,0,0,0,0.00
2013-8-3,77.5,71.0,65.1,70.8,66.2,61.2,88,85,78,0.00,0.00,0,0,0,0.00
2013-8-4,77.2,70.4,64.2,68.4,62.9,58.3,89,78,61,0.00,0.00,0,0,0,0.00
2013-8-5,75.6,68.0,58.6,64.1,59.9,54.0,86,76,62,0.00,0.00,0,0,0,0.00
2013-8-6,73.8,68.7,65.8,69.0,64.2,61.7,88,86,81,0.00,0.00,0,0,0,0.11
2013-8-7,70.9,70.8,70.2,67.1,67.0,66.4,88,88,88,0.00,0.00,0,0,0,0.00
2013-8-9,80.8,80.8,80.8,73.7,73.7,73.7,79,79,79,0.00,40.00,0,0,0,0.00
2013-8-10,77.4,74.9,74.1,71.8,70.5,69.7,88,86,83,0.00,0.00,0,0,0,0.00
2013-8-11,70.3,70.3,70.3,67.3,67.3,67.3,90,90,90,0.00,40.00,0,0,0,0.00
2013-8-12,80.8,77.7,69.6,75.9,72.7,66.2,90,85,77,0.00,0.00,0,0,0,0.51
2013-8-13,80.8,74.5,71.8,74.1,70.5,68.2,89,87,79,0.00,0.00,0,0,0,0.44
2013-8-14,71.8,67.2,61.9,68.4,60.4,55.1,89,79,63,0.00,0.00,0,0,0,0.00
2013-8-15,71.4,65.7,54.9,59.2,56.5,50.4,86,73,61,0.00,0.00,0,0,0,0.00
2013-8-16,72.7,64.8,54.7,64.2,57.5,50.2,87,78,66,0.00,0.00,0,0,0,0.00
2013-8-17,70.0,63.5,59.2,62.0,58.0,54.7,87,83,75,0.00,0.00,0,0,0,0.00
2013-8-28,74.3,73.4,71.2,70.9,68.6,52.9,89,86,48,0.00,0.00,0,0,0,0.00
2013-8-30,69.8,69.8,69.8,66.1,56.4,46.8,88,66,44,0.00,0.00,0,0,0,0.00
2013-8-31,83.1,75.2,69.6,75.6,69.9,65.9,88,84,74,0.00,0.00,0,0,0,0.29
2013-9-1,69.1,68.0,67.6,65.7,64.8,64.3,90,89,89,0.00,40.00,0,0,0,0.00
2013-9-2,79.3,78.6,77.5,75.0,74.4,73.4,87,87,86,0.00,0.00,0,0,0,0.00
2013-9-3,79.3,78.2,76.8,72.9,71.8,70.7,86,81,76,0.00,0.00,0,0,0,0.00
2013-12-7,44.4,39.1,32.2,39.0,33.2,27.3,82,79,77,0.00,0.00,0,0,0,0.00
2013-12-8,32.5,31.2,29.8,29.1,26.3,24.0,87,82,75,0.00,0.00,0,0,0,0.00
2013-12-9,38.5,35.2,32.7,35.5,32.1,29.1,89,88,87,30.13,0.00,0,0,0,0.00
2013-12-10,37.2,35.5,34.9,34.2,32.5,31.7,89,89,89,30.14,29.78,0,0,0,0.00
2013-12-12,27.5,27.2,27.1,16.3,16.1,15.8,63,63,62,30.10,29.98,0,0,0,0.00
2013-12-13,49.6,35.5,26.2,28.0,20.6,15.8,67,55,40,30.16,29.61,0,0,0,0.00
2013-12-14,38.8,36.3,33.1,32.3,30.6,24.3,86,80,70,30.04,29.29,0,0,0,0.00
2013-12-15,49.6,46.1,39.0,42.3,39.3,35.4,88,77,63,29.69,29.24,0,0,0,0.00
2013-12-16,43.3,36.8,31.8,32.3,28.7,25.4,79,73,65,30.22,29.19,0,0,0,0.00
2013-12-17,48.0,38.2,28.8,38.7,31.7,23.4,82,77,70,30.16,29.55,0,0,0,0.00
2013-12-18,34.3,30.8,29.5,29.9,26.2,24.9,84,83,83,30.06,29.07,0,0,0,0.00
2013-12-19,63.1,47.4,28.9,39.3,32.1,22.3,78,57,39,30.26,29.30,0,0,0,0.00
2013-12-20,62.4,48.2,36.5,44.3,36.2,28.2,73,64,50,30.18,29.04,0,0,0,0.00
2013-12-21,69.6,58.2,46.9,60.2,50.0,38.4,83,74,64,30.14,28.90,0,0,0,0.00
2013-12-22,70.9,65.2,61.0,64.4,59.9,56.8,88,83,78,30.08,28.82,0,0,0,0.00
2013-12-23,62.6,56.4,40.3,59.7,52.5,33.9,90,87,76,30.09,29.12,0,0,0,0.00
2013-12-24,43.7,35.0,26.4,33.9,26.3,14.7,85,71,55,31.13,29.39,0,0,0,0.00
2013-12-25,36.7,27.0,19.4,20.8,16.1,11.7,74,63,51,31.07,29.79,0,0,0,0.00
2013-12-26,50.9,32.6,21.6,33.3,21.8,14.2,76,65,47,29.99,29.17,0,0,0,0.00
2013-12-27,54.0,35.1,23.7,31.7,22.9,17.2,79,62,40,30.06,29.57,0,0,0,0.00
2013-12-28,58.8,38.8,25.0,35.1,25.9,17.8,77,61,38,29.66,29.12,0,0,0,0.00
2013-12-29,44.4,42.2,41.2,36.8,34.6,31.6,84,75,61,29.51,29.03,0,0,0,0.00
2013-12-30,44.2,38.5,35.4,35.8,31.9,29.6,86,77,72,29.74,29.68,0,0,0,0.00
2013-12-31,44.4,33.0,4.6,32.6,24.8,-3.4,83,72,58,0.00,0.00,0,0,0,0.00
2014-1-1,51.6,40.7,27.7,34.5,27.9,21.7,79,61,48,0.00,0.00,0,0,0,0.00
2014-1-2,39.0,32.9,28.0,31.0,26.4,21.7,84,77,71,0.00,0.00,0,0,0,0.00